Date String (YYYY-MM-DD hh:mm:ss) UTC,Instrument flags,Ambient pressure (hPa),Sample flow (lpm),Bypass flow (lpm),Sample temperature (°C),Ambient temperature (°C),ASC tube jacket temperature (°C),LED temperature (°C),Box temperature (°C),Sample RH (%),Span deviation,Mass concentration (μg/m³),Mass concentration (μg/m³),Mass concentration (μg/m³)
DateTimeUTC,F1_M11,P_M11,Q1_M11,Q2_M11,T1_M11,T2_M11,T3_M11,T4_M11,T5_M11,U1_M11,ZSPAN_M11,X0_M11,X2_M11,X1_M11
2022-06-21 22:00:00,,0833.2,5.01,0.00,29.3,27.7,00.0,37.9,31.2,15.4,0000.0,0011.93,0003.71,0001.98
2022-06-21 22:01:00,,0833.1,5.00,0.00,29.2,27.0,00.0,37.9,31.0,15.4,0000.0,0011.77,0003.68,0001.98
2022-06-21 22:02:00,,0833.2,5.00,0.00,29.2,26.9,00.0,37.9,30.9,15.4,0000.0,0011.74,0003.69,0001.97
2022-06-21 22:03:00,,0833.3,4.99,0.00,29.1,27.0,00.0,37.9,30.9,15.5,0000.0,0010.71,0003.77,0002.00
2022-06-21 22:04:00,,0833.3,4.99,0.00,29.1,27.2,00.0,37.9,30.9,15.6,0000.0,0011.87,0003.83,0002.02
2022-06-21 22:05:00,,0833.3,5.00,0.00,29.1,27.4,00.0,37.9,31.0,15.7,0000.0,0012.04,0003.83,0002.03
2022-06-21 22:06:00,,0833.4,4.99,0.00,29.1,27.6,00.0,37.9,31.0,15.8,0000.0,0011.52,0003.80,0002.02
2022-06-21 22:07:00,,0833.3,5.00,0.00,29.1,27.8,00.0,37.9,31.1,15.8,0000.0,0010.92,0003.81,0002.03
2022-06-21 22:08:00,,0833.3,5.00,0.00,29.2,28.0,00.0,37.9,31.1,15.7,0000.0,0010.24,0003.80,0002.04
2022-06-21 22:09:00,,0833.3,4.99,0.00,29.2,28.1,00.0,37.9,31.2,15.7,0000.0,0010.76,0003.78,0002.04
2022-06-21 22:10:00,,0833.3,4.99,0.00,29.2,28.3,00.0,38.0,31.3,15.7,0000.0,0010.75,0003.74,0002.04
2022-06-21 22:11:00,,0833.4,5.01,0.00,29.3,28.4,00.0,38.0,31.3,15.6,0000.0,0010.59,0003.69,0002.02
2022-06-21 22:12:00,,0833.4,4.99,0.00,29.3,28.5,00.0,38.0,31.3,15.6,0000.0,0010.56,0003.68,0002.02
2022-06-21 22:13:00,,0833.3,5.00,0.00,29.3,27.9,00.0,38.0,31.2,15.6,0000.0,0010.59,0003.68,0002.02
2022-06-21 22:14:00,,0833.2,5.01,0.00,29.2,27.1,00.0,37.9,31.0,15.6,0000.0,0010.42,0003.61,0002.01
2022-06-21 22:15:00,,0833.2,5.00,0.00,29.2,26.9,00.0,37.9,30.9,15.7,0000.0,0009.76,0003.58,0002.00
2022-06-21 22:16:00,,0833.3,4.99,0.00,29.1,27.0,00.0,37.9,30.9,15.7,0000.0,0009.87,0003.62,0002.00
2022-06-21 22:17:00,,0833.3,5.00,0.00,29.1,27.1,00.0,37.9,30.9,15.8,0000.0,0010.06,0003.60,0001.99
2022-06-21 22:18:00,,0833.2,5.00,0.00,29.1,27.3,00.0,37.9,30.9,15.9,0000.0,0010.47,0003.58,0001.97
2022-06-21 22:19:00,,0833.2,5.01,0.00,29.1,27.5,00.0,37.9,31.0,15.9,0000.0,0010.78,0003.60,0001.97
2022-06-21 22:20:00,,0833.2,5.02,0.00,29.1,27.7,00.0,37.9,31.0,15.9,0000.0,0010.51,0003.58,0001.97
2022-06-21 22:21:00,,0833.3,5.00,0.00,29.1,27.9,00.0,37.9,31.1,15.7,0000.0,0010.29,0003.58,0001.97
2022-06-21 22:22:00,,0833.2,4.99,0.00,29.2,28.0,00.0,37.9,31.2,15.5,0000.0,0010.24,0003.61,0001.99
2022-06-21 22:23:00,,0833.3,5.01,0.00,29.2,28.2,00.0,37.9,31.2,15.5,0000.0,0010.38,0003.66,0002.01
2022-06-21 22:24:00,,0833.3,4.99,0.00,29.3,28.3,00.0,38.0,31.3,15.2,0000.0,0010.51,0003.67,0002.03
2022-06-21 22:25:00,,0833.3,5.01,0.00,29.3,28.5,00.0,38.0,31.3,15.2,0000.0,0010.64,0003.69,0002.04
2022-06-21 22:26:00,,0833.3,5.00,0.00,29.3,28.5,00.0,38.0,31.4,15.1,0000.0,0010.28,0003.68,0002.05
2022-06-21 22:27:00,,0833.3,5.00,0.00,29.3,27.9,00.0,38.0,31.2,15.0,0000.0,0010.46,0003.71,0002.06
2022-06-21 22:28:00,,0833.3,4.99,0.00,29.2,27.1,00.0,37.9,31.0,15.1,0000.0,0010.93,0003.76,0002.08
2022-06-21 22:29:00,,0833.3,5.01,0.00,29.2,26.9,00.0,37.9,30.9,15.2,0000.0,0010.77,0003.77,0002.11
2022-06-21 22:30:00,,0833.3,5.00,0.00,29.1,27.0,00.0,37.9,30.9,15.3,0000.0,0010.30,0003.74,0002.12
2022-06-21 22:31:00,,0833.3,4.99,0.00,29.1,27.1,00.0,37.9,30.9,15.3,0000.0,0009.59,0003.73,0002.13
2022-06-21 22:32:00,,0833.3,5.00,0.00,29.1,27.3,00.0,37.9,30.9,15.3,0000.0,0009.68,0003.76,0002.14
2022-06-21 22:33:00,,0833.3,5.00,0.00,29.1,27.5,00.0,37.9,31.0,15.3,0000.0,0009.95,0003.83,0002.15
2022-06-21 22:34:00,,0833.3,5.01,0.00,29.1,27.7,00.0,37.9,31.1,15.2,0000.0,0010.29,0003.85,0002.18
2022-06-21 22:35:00,,0833.3,5.00,0.00,29.1,27.9,00.0,37.9,31.1,15.2,0000.0,0010.40,0003.89,0002.22
2022-06-21 22:36:00,,0833.2,5.00,0.00,29.2,28.1,00.0,37.9,31.2,15.2,0000.0,0010.34,0003.93,0002.29
2022-06-21 22:37:00,,0833.3,5.01,0.00,29.2,28.2,00.0,37.9,31.2,15.2,0000.0,0010.37,0003.98,0002.36
2022-06-21 22:38:00,,0833.3,4.99,0.00,29.3,28.4,00.0,38.0,31.3,15.2,0000.0,0010.10,0004.00,0002.42
2022-06-21 22:39:00,,0833.2,5.00,0.00,29.3,28.5,00.0,38.0,31.3,15.2,0000.0,0010.08,0004.01,0002.47
2022-06-21 22:40:00,,0833.2,4.99,0.00,29.3,28.5,00.0,38.0,31.3,15.1,0000.0,0010.27,0004.02,0002.51
2022-06-21 22:41:00,,0833.2,5.01,0.00,29.3,27.8,00.0,38.0,31.2,15.2,0000.0,0010.73,0004.02,0002.53
2022-06-21 22:42:00,,0833.2,5.00,0.00,29.2,27.1,00.0,37.9,31.0,15.4,0000.0,0011.68,0004.09,0002.53
2022-06-21 22:43:00,,0833.2,4.99,0.00,29.2,27.0,00.0,37.9,30.9,15.4,0000.0,0011.92,0004.11,0002.51
2022-06-21 22:44:00,,0833.2,5.00,0.00,29.1,27.0,00.0,37.9,30.9,15.3,0000.0,0012.60,0004.06,0002.49
2022-06-21 22:45:00,,0833.2,5.01,0.00,29.1,27.2,00.0,37.9,30.9,15.3,0000.0,0013.28,0004.02,0002.44
2022-06-21 22:46:00,,0833.2,5.00,0.00,29.1,27.4,00.0,37.9,31.0,15.3,0000.0,0013.25,0003.98,0002.39
2022-06-21 22:47:00,,0833.3,5.00,0.00,29.1,27.6,00.0,37.9,31.0,15.1,0000.0,0014.11,0003.95,0002.31
2022-06-21 22:48:00,,0833.2,4.99,0.00,29.1,27.8,00.0,37.9,31.1,14.9,0000.0,0014.51,0003.91,0002.22
2022-06-21 22:49:00,,0833.3,5.00,0.00,29.2,27.9,00.0,37.9,31.1,14.9,0000.0,0014.47,0003.85,0002.16
2022-06-21 22:50:00,,0833.2,5.00,0.00,29.2,28.1,00.0,37.9,31.2,14.9,0000.0,0014.02,0003.80,0002.09
2022-06-21 22:51:00,,0833.3,5.01,0.00,29.2,28.3,00.0,38.0,31.3,14.9,0000.0,0013.72,0003.81,0002.03
2022-06-21 22:52:00,,0833.3,4.99,0.00,29.3,28.4,00.0,38.0,31.3,14.8,0000.0,0013.46,0003.82,0002.00
2022-06-21 22:53:00,,0833.3,5.00,0.00,29.3,28.5,00.0,38.0,31.4,14.9,0000.0,0013.69,0003.75,0001.99
2022-06-21 22:54:00,,0833.3,5.00,0.00,29.4,28.6,00.0,38.0,31.4,14.8,0000.0,0013.90,0003.71,0001.98
2022-06-21 22:55:00,,0833.3,5.01,0.00,29.4,28.2,00.0,38.0,31.3,14.8,0000.0,0012.89,0003.67,0001.97
2022-06-21 22:56:00,,0833.2,5.01,0.00,29.3,27.3,00.0,38.0,31.1,14.8,0000.0,0012.42,0003.66,0001.97
2022-06-21 22:57:00,,0833.2,5.01,0.00,29.3,27.0,00.0,37.9,31.0,14.9,0000.0,0012.45,0003.69,0001.98
2022-06-21 22:58:00,,0833.2,5.00,0.00,29.2,27.0,00.0,37.9,31.0,15.0,0000.0,0011.77,0003.71,0001.98
2022-06-21 22:59:00,,0833.2,5.01,0.00,29.2,27.2,00.0,37.9,31.0,15.1,0000.0,0011.47,0003.72,0001.99
